Time,TemperatureF,DewpointF,PressureIn,WindDirection,WindDirectionDegrees,WindSpeedMPH,WindSpeedGustMPH,Humidity,HourlyPrecipIn,Conditions,Clouds,dailyrainin,SoftwareType,DateUTC
2013-06-16 00:02:00,63.0,54.0,29.98,South,189,0.0,2.0,73,0.00,,,0.00,,2013-06-16 04:02:00,
2013-06-16 00:12:00,63.0,54.0,29.98,South,170,0.0,1.0,73,0.00,,,0.00,,2013-06-16 04:12:00,
2013-06-16 00:23:00,62.0,54.0,29.98,SE,144,0.0,1.0,75,0.00,,,0.00,,2013-06-16 04:23:00,
2013-06-16 00:34:00,62.0,54.0,29.98,SE,144,0.0,1.0,75,0.00,,,0.00,,2013-06-16 04:34:00,
2013-06-16 00:43:00,62.0,54.0,29.98,SSE,159,0.0,1.0,74,0.00,,,0.00,,2013-06-16 04:43:00,
2013-06-16 00:53:00,62.0,54.0,29.98,SSE,159,0.0,1.0,74,0.00,,,0.00,,2013-06-16 04:53:00,
2013-06-16 01:02:00,62.0,54.0,29.98,SSE,159,0.0,1.0,74,0.00,,,0.00,,2013-06-16 05:02:00,
2013-06-16 01:12:00,62.0,54.0,29.98,SSE,159,0.0,1.0,74,0.00,,,0.00,,2013-06-16 05:12:00,
2013-06-16 01:22:00,62.0,54.0,29.97,SSE,159,0.0,1.0,74,0.00,,,0.00,,2013-06-16 05:22:00,
2013-06-16 01:34:00,62.0,54.0,29.97,SSE,159,0.0,1.0,74,0.00,,,0.00,,2013-06-16 05:34:00,
2013-06-16 01:43:00,61.0,53.0,29.97,SSE,159,0.0,1.0,76,0.00,,,0.00,,2013-06-16 05:43:00,
2013-06-16 01:52:00,61.0,53.0,29.97,SSE,167,0.0,2.0,75,0.00,,,0.00,,2013-06-16 05:52:00,
2013-06-16 02:01:00,61.0,53.0,29.97,SSE,167,0.0,2.0,75,0.00,,,0.00,,2013-06-16 06:01:00,
2013-06-16 02:12:00,62.0,54.0,29.97,SSE,160,0.0,1.0,74,0.00,,,0.00,,2013-06-16 06:12:00,
2013-06-16 02:23:00,62.0,54.0,29.96,SSE,154,0.0,0.0,74,0.00,,,0.00,,2013-06-16 06:23:00,
2013-06-16 02:33:00,62.0,54.0,29.96,SSE,154,0.0,0.0,74,0.00,,,0.00,,2013-06-16 06:33:00,
2013-06-16 02:43:00,62.0,53.0,29.96,South,173,0.0,2.0,73,0.00,,,0.00,,2013-06-16 06:43:00,
2013-06-16 02:52:00,62.0,54.0,29.95,ESE,117,0.0,2.0,74,0.00,,,0.00,,2013-06-16 06:52:00,
2013-06-16 03:01:00,62.0,54.0,29.95,ESE,117,0.0,2.0,74,0.00,,,0.00,,2013-06-16 07:01:00,
2013-06-16 03:12:00,62.0,54.0,29.96,SE,140,0.0,2.0,74,0.00,,,0.00,,2013-06-16 07:12:00,
2013-06-16 03:22:00,62.0,53.0,29.95,ESE,110,0.0,3.0,73,0.00,,,0.00,,2013-06-16 07:22:00,
2013-06-16 03:33:00,62.0,53.0,29.95,ESE,110,0.0,3.0,73,0.00,,,0.00,,2013-06-16 07:33:00,
2013-06-16 03:43:00,63.0,54.0,29.93,ESE,121,1.0,3.0,73,0.00,,,0.00,,2013-06-16 07:43:00,
2013-06-16 03:53:00,63.0,54.0,29.92,South,171,0.0,2.0,73,0.00,,,0.00,,2013-06-16 07:53:00,
2013-06-16 04:02:00,63.0,54.0,29.92,South,171,0.0,2.0,73,0.00,,,0.00,,2013-06-16 08:02:00,
2013-06-16 04:12:00,63.0,55.0,29.92,SSW,195,0.0,3.0,74,0.00,,,0.00,,2013-06-16 08:12:00,
2013-06-16 04:22:00,62.0,55.0,29.92,SE,135,1.0,4.0,77,0.00,,,0.00,,2013-06-16 08:22:00,
2013-06-16 04:33:00,62.0,55.0,29.92,SE,135,1.0,4.0,77,0.00,,,0.00,,2013-06-16 08:33:00,
2013-06-16 04:43:00,61.0,55.0,29.92,ESE,119,0.0,2.0,80,0.00,,,0.00,,2013-06-16 08:43:00,
2013-06-16 04:54:00,61.0,55.0,29.91,ESE,121,1.0,3.0,80,0.00,,,0.00,,2013-06-16 08:54:00,
2013-06-16 05:02:00,61.0,55.0,29.91,ESE,121,1.0,3.0,80,0.00,,,0.00,,2013-06-16 09:02:00,
2013-06-16 05:11:00,61.0,55.0,29.90,SE,136,2.0,4.0,80,0.00,,,0.00,,2013-06-16 09:11:00,
2013-06-16 05:22:00,60.0,54.0,29.90,SSE,149,2.0,4.0,81,0.00,,,0.00,,2013-06-16 09:22:00,
2013-06-16 05:33:00,60.0,54.0,29.90,SSE,149,2.0,4.0,81,0.00,,,0.00,,2013-06-16 09:33:00,
2013-06-16 05:43:00,60.0,55.0,29.90,SE,141,2.0,4.0,83,0.00,,,0.00,,2013-06-16 09:43:00,
2013-06-16 05:52:00,59.0,54.0,29.90,SE,126,2.0,7.0,84,0.00,,,0.00,,2013-06-16 09:52:00,
2013-06-16 06:02:00,59.0,54.0,29.90,SE,146,2.0,5.0,84,0.00,,,0.00,,2013-06-16 10:02:00,
2013-06-16 06:12:00,59.0,54.0,29.90,SE,146,2.0,5.0,84,0.00,,,0.00,,2013-06-16 10:12:00,
2013-06-16 06:22:00,60.0,55.0,29.90,SSE,150,1.0,4.0,84,0.00,,,0.00,,2013-06-16 10:22:00,
2013-06-16 06:33:00,60.0,55.0,29.90,SSE,150,1.0,4.0,84,0.00,,,0.00,,2013-06-16 10:33:00,
2013-06-16 06:43:00,60.0,55.0,29.89,SE,145,1.0,3.0,83,0.00,,,0.00,,2013-06-16 10:43:00,
2013-06-16 06:53:00,60.0,55.0,29.89,SSE,153,1.0,4.0,83,0.00,,,0.00,,2013-06-16 10:53:00,
2013-06-16 07:02:00,60.0,55.0,29.89,SSE,153,1.0,4.0,83,0.00,,,0.00,,2013-06-16 11:02:00,
2013-06-16 07:12:00,61.0,55.0,29.88,SE,128,2.0,7.0,82,0.00,,,0.00,,2013-06-16 11:12:00,
2013-06-16 07:22:00,61.0,55.0,29.88,SSE,162,2.0,4.0,82,0.00,,,0.00,,2013-06-16 11:22:00,
2013-06-16 07:34:00,61.0,55.0,29.88,SSE,162,2.0,4.0,82,0.00,,,0.00,,2013-06-16 11:34:00,
2013-06-16 07:43:00,61.0,55.0,29.87,SSE,153,2.0,5.0,81,0.00,,,0.00,,2013-06-16 11:43:00,
2013-06-16 07:52:00,61.0,55.0,29.86,SE,145,2.0,4.0,82,0.00,,,0.00,,2013-06-16 11:52:00,
2013-06-16 08:02:00,61.0,55.0,29.86,SE,145,2.0,4.0,82,0.00,,,0.00,,2013-06-16 12:02:00,
2013-06-16 08:12:00,62.0,56.0,29.85,SE,136,2.0,5.0,81,0.00,,,0.00,,2013-06-16 12:12:00,
2013-06-16 08:22:00,62.0,56.0,29.85,SE,126,2.0,5.0,82,0.00,,,0.00,,2013-06-16 12:22:00,
2013-06-16 08:33:00,62.0,56.0,29.85,SE,126,2.0,5.0,82,0.00,,,0.00,,2013-06-16 12:33:00,
2013-06-16 08:43:00,62.0,56.0,29.84,SSE,147,2.0,6.0,82,0.00,,,0.00,,2013-06-16 12:43:00,
2013-06-16 08:53:00,62.0,57.0,29.83,SE,126,2.0,5.0,84,0.00,,,0.00,,2013-06-16 12:53:00,
2013-06-16 09:01:00,62.0,57.0,29.83,SE,126,2.0,5.0,84,0.00,,,0.00,,2013-06-16 13:01:00,
2013-06-16 09:12:00,61.0,56.0,29.82,SSE,149,2.0,5.0,85,0.00,,,0.00,,2013-06-16 13:12:00,
2013-06-16 09:22:00,61.0,56.0,29.82,SSE,149,2.0,5.0,85,0.00,,,0.00,,2013-06-16 13:22:00,
2013-06-16 09:34:00,61.0,56.0,29.82,SSE,149,2.0,5.0,85,0.00,,,0.00,,2013-06-16 13:34:00,
2013-06-16 09:43:00,61.0,57.0,29.81,SE,132,2.0,5.0,88,0.02,,,0.02,,2013-06-16 13:43:00,
2013-06-16 09:53:00,61.0,57.0,29.81,SE,132,2.0,5.0,88,0.02,,,0.02,,2013-06-16 13:53:00,
2013-06-16 10:02:00,60.0,57.0,29.80,SE,145,3.0,7.0,90,0.06,,,0.06,,2013-06-16 14:02:00,
2013-06-16 10:12:00,60.0,57.0,29.79,SE,134,2.0,4.0,91,0.09,,,0.09,,2013-06-16 14:12:00,
2013-06-16 10:22:00,60.0,58.0,29.78,SE,127,2.0,5.0,93,0.10,,,0.10,,2013-06-16 14:22:00,
2013-06-16 10:34:00,60.0,58.0,29.78,SE,127,2.0,5.0,93,0.10,,,0.10,,2013-06-16 14:34:00,
2013-06-16 10:43:00,60.0,58.0,29.77,SE,137,2.0,4.0,93,0.08,,,0.10,,2013-06-16 14:43:00,
2013-06-16 10:52:00,60.0,58.0,29.76,SSE,152,2.0,5.0,93,0.07,,,0.14,,2013-06-16 14:52:00,
2013-06-16 11:02:00,60.0,58.0,29.76,SSE,152,2.0,5.0,93,0.07,,,0.14,,2013-06-16 15:02:00,
2013-06-16 11:12:00,60.0,58.0,29.76,SSE,157,2.0,5.0,94,0.07,,,0.16,,2013-06-16 15:12:00,
2013-06-16 11:23:00,61.0,60.0,29.75,SSE,161,2.0,4.0,95,0.06,,,0.16,,2013-06-16 15:23:00,
2013-06-16 11:34:00,61.0,60.0,29.75,SSE,161,2.0,4.0,95,0.06,,,0.16,,2013-06-16 15:34:00,
2013-06-16 11:43:00,61.0,60.0,29.75,SE,138,1.0,4.0,95,0.06,,,0.16,,2013-06-16 15:43:00,
2013-06-16 11:52:00,62.0,61.0,29.74,SSE,168,1.0,3.0,95,0.01,,,0.16,,2013-06-16 15:52:00,
2013-06-16 12:02:00,62.0,61.0,29.74,SSE,168,1.0,3.0,95,0.01,,,0.16,,2013-06-16 16:02:00,
2013-06-16 12:12:00,62.0,61.0,29.74,SE,134,0.0,4.0,95,0.04,,,0.20,,2013-06-16 16:12:00,
2013-06-16 12:23:00,63.0,62.0,29.73,SSE,165,0.0,2.0,96,0.05,,,0.21,,2013-06-16 16:23:00,
2013-06-16 12:33:00,63.0,62.0,29.73,SSE,165,0.0,2.0,96,0.05,,,0.21,,2013-06-16 16:33:00,
2013-06-16 12:43:00,63.0,62.0,29.74,NNE,31,1.0,3.0,97,0.05,,,0.21,,2013-06-16 16:43:00,
2013-06-16 12:53:00,64.0,63.0,29.74,ENE,71,1.0,6.0,97,0.05,,,0.21,,2013-06-16 16:53:00,
2013-06-16 13:02:00,64.0,63.0,29.74,ENE,71,1.0,6.0,97,0.05,,,0.21,,2013-06-16 17:02:00,
2013-06-16 13:12:00,64.0,63.0,29.74,NNW,343,2.0,5.0,96,0.03,,,0.23,,2013-06-16 17:12:00,
2013-06-16 13:22:00,64.0,63.0,29.74,NNW,343,2.0,5.0,96,0.03,,,0.23,,2013-06-16 17:22:00,
2013-06-16 13:34:00,65.0,64.0,29.74,NE,46,4.0,9.0,96,0.02,,,0.23,,2013-06-16 17:34:00,
2013-06-16 13:43:00,65.0,64.0,29.74,NE,46,3.0,9.0,96,0.02,,,0.23,,2013-06-16 17:43:00,
2013-06-16 13:53:00,65.0,64.0,29.74,NE,46,3.0,9.0,96,0.02,,,0.23,,2013-06-16 17:53:00,
2013-06-16 14:02:00,66.0,65.0,29.75,North,355,3.0,7.0,95,0.02,,,0.23,,2013-06-16 18:02:00,
2013-06-16 14:12:00,67.0,65.0,29.75,ENE,75,3.0,11.0,94,0.00,,,0.23,,2013-06-16 18:12:00,
2013-06-16 14:22:00,67.0,65.0,29.75,ENE,75,3.0,11.0,94,0.00,,,0.23,,2013-06-16 18:22:00,
2013-06-16 14:34:00,67.0,65.0,29.76,NNE,30,3.0,11.0,94,0.00,,,0.23,,2013-06-16 18:34:00,
2013-06-16 14:43:00,67.0,65.0,29.76,North,355,2.0,6.0,93,0.00,,,0.23,,2013-06-16 18:43:00,
2013-06-16 14:52:00,67.0,65.0,29.76,North,355,2.0,6.0,93,0.00,,,0.23,,2013-06-16 18:52:00,
2013-06-16 15:01:00,68.0,66.0,29.77,East,98,3.0,9.0,92,0.00,,,0.23,,2013-06-16 19:01:00,
2013-06-16 15:12:00,67.0,64.0,29.78,NNW,347,4.0,9.0,91,0.00,,,0.23,,2013-06-16 19:12:00,
2013-06-16 15:22:00,67.0,64.0,29.78,NNW,347,4.0,9.0,91,0.00,,,0.23,,2013-06-16 19:22:00,
2013-06-16 15:34:00,68.0,65.0,29.78,NNE,13,5.0,12.0,90,0.00,,,0.23,,2013-06-16 19:34:00,
2013-06-16 15:43:00,72.0,66.0,29.78,NNW,348,6.0,11.0,81,0.00,,,0.23,,2013-06-16 19:43:00,
2013-06-16 15:53:00,72.0,66.0,29.78,NNW,348,6.0,11.0,81,0.00,,,0.23,,2013-06-16 19:53:00,
2013-06-16 16:02:00,73.0,67.0,29.78,SW,214,2.0,13.0,82,0.00,,,0.23,,2013-06-16 20:02:00,
2013-06-16 16:12:00,74.0,67.0,29.78,West,279,4.0,12.0,79,0.00,,,0.23,,2013-06-16 20:12:00,
2013-06-16 16:22:00,74.0,67.0,29.78,West,279,4.0,12.0,79,0.00,,,0.23,,2013-06-16 20:22:00,
2013-06-16 16:33:00,73.0,65.0,29.78,NNW,329,3.0,10.0,76,0.00,,,0.23,,2013-06-16 20:33:00,
2013-06-16 16:42:00,72.0,66.0,29.78,SE,140,4.0,8.0,82,0.00,,,0.23,,2013-06-16 20:42:00,
2013-06-16 16:53:00,72.0,66.0,29.78,SE,140,4.0,8.0,82,0.00,,,0.23,,2013-06-16 20:53:00,
2013-06-16 17:02:00,74.0,67.0,29.78,SE,138,1.0,5.0,78,0.00,,,0.23,,2013-06-16 21:02:00,
2013-06-16 17:11:00,75.0,68.0,29.79,North,360,2.0,7.0,79,0.01,,,0.24,,2013-06-16 21:11:00,
2013-06-16 17:22:00,75.0,68.0,29.79,North,360,2.0,7.0,79,0.01,,,0.24,,2013-06-16 21:22:00,
2013-06-16 17:33:00,75.0,67.0,29.79,WNW,286,2.0,10.0,76,0.01,,,0.24,,2013-06-16 21:33:00,
2013-06-16 17:42:00,75.0,67.0,29.79,North,5,4.0,10.0,75,0.01,,,0.24,,2013-06-16 21:42:00,
2013-06-16 17:53:00,75.0,67.0,29.79,North,5,4.0,10.0,75,0.01,,,0.24,,2013-06-16 21:53:00,
2013-06-16 18:02:00,75.0,67.0,29.79,NNE,19,2.0,7.0,75,0.01,,,0.24,,2013-06-16 22:02:00,
2013-06-16 18:12:00,74.0,66.0,29.80,NNE,17,3.0,9.0,76,0.00,,,0.24,,2013-06-16 22:12:00,
2013-06-16 18:22:00,74.0,66.0,29.80,NNE,17,3.0,9.0,76,0.00,,,0.24,,2013-06-16 22:22:00,
2013-06-16 18:32:00,74.0,65.0,29.80,West,272,3.0,7.0,73,0.00,,,0.24,,2013-06-16 22:32:00,
2013-06-16 18:42:00,73.0,65.0,29.80,NW,315,3.0,10.0,76,0.00,,,0.24,,2013-06-16 22:42:00,
2013-06-16 18:52:00,73.0,65.0,29.80,NW,315,3.0,10.0,76,0.00,,,0.24,,2013-06-16 22:52:00,
2013-06-16 19:02:00,74.0,66.0,29.80,WSW,257,2.0,11.0,75,0.00,,,0.24,,2013-06-16 23:02:00,
2013-06-16 19:11:00,73.0,64.0,29.81,SSW,204,3.0,8.0,74,0.00,,,0.24,,2013-06-16 23:11:00,
2013-06-16 19:22:00,73.0,64.0,29.81,SSW,204,3.0,8.0,74,0.00,,,0.24,,2013-06-16 23:22:00,
2013-06-16 19:32:00,72.0,64.0,29.82,WNW,298,2.0,7.0,77,0.00,,,0.24,,2013-06-16 23:32:00,
2013-06-16 19:42:00,72.0,64.0,29.82,SSW,208,2.0,6.0,77,0.00,,,0.24,,2013-06-16 23:42:00,
2013-06-16 19:52:00,72.0,64.0,29.82,SSW,208,2.0,6.0,77,0.00,,,0.24,,2013-06-16 23:52:00,
2013-06-16 20:02:00,71.0,64.0,29.83,NNE,28,4.0,11.0,78,0.00,,,0.24,,2013-06-17 00:02:00,
2013-06-16 20:12:00,71.0,64.0,29.83,SE,132,3.0,10.0,78,0.00,,,0.24,,2013-06-17 00:12:00,
2013-06-16 20:22:00,71.0,64.0,29.83,SE,132,3.0,10.0,78,0.00,,,0.24,,2013-06-17 00:22:00,
2013-06-16 20:32:00,70.0,63.0,29.84,North,355,2.0,6.0,79,0.00,,,0.24,,2013-06-17 00:32:00,
2013-06-16 20:43:00,70.0,64.0,29.84,WNW,290,1.0,9.0,80,0.00,,,0.24,,2013-06-17 00:43:00,
2013-06-16 20:52:00,70.0,64.0,29.84,WNW,290,1.0,9.0,80,0.00,,,0.24,,2013-06-17 00:52:00,
2013-06-16 21:02:00,69.0,63.0,29.84,NW,304,1.0,7.0,82,0.00,,,0.24,,2013-06-17 01:02:00,
2013-06-16 21:12:00,68.0,63.0,29.84,West,278,2.0,7.0,83,0.00,,,0.24,,2013-06-17 01:12:00,
2013-06-16 21:22:00,68.0,63.0,29.84,West,278,2.0,7.0,83,0.00,,,0.24,,2013-06-17 01:22:00,
2013-06-16 21:32:00,68.0,63.0,29.84,North,5,1.0,4.0,85,0.00,,,0.24,,2013-06-17 01:32:00,
2013-06-16 21:43:00,67.0,63.0,29.85,NE,46,1.0,4.0,86,0.00,,,0.24,,2013-06-17 01:43:00,
2013-06-16 21:53:00,67.0,63.0,29.85,NE,46,1.0,4.0,86,0.00,,,0.24,,2013-06-17 01:53:00,
2013-06-16 22:03:00,67.0,63.0,29.86,NNE,20,1.0,4.0,86,0.00,,,0.24,,2013-06-17 02:03:00,
2013-06-16 22:12:00,66.0,62.0,29.86,ENE,67,1.0,4.0,87,0.00,,,0.24,,2013-06-17 02:12:00,
2013-06-16 22:22:00,66.0,62.0,29.86,ENE,67,1.0,4.0,87,0.00,,,0.24,,2013-06-17 02:22:00,
2013-06-16 22:34:00,66.0,62.0,29.87,NE,54,1.0,5.0,87,0.00,,,0.24,,2013-06-17 02:34:00,
2013-06-16 22:43:00,66.0,62.0,29.86,NE,49,0.0,4.0,87,0.00,,,0.24,,2013-06-17 02:43:00,
2013-06-16 22:53:00,66.0,62.0,29.86,NE,49,0.0,4.0,87,0.00,,,0.24,,2013-06-17 02:53:00,
2013-06-16 23:02:00,65.0,61.0,29.86,WNW,282,0.0,3.0,88,0.00,,,0.24,,2013-06-17 03:02:00,
2013-06-16 23:12:00,65.0,62.0,29.87,NNE,20,0.0,3.0,89,0.00,,,0.24,,2013-06-17 03:12:00,
2013-06-16 23:22:00,65.0,62.0,29.87,NNE,20,0.0,3.0,89,0.00,,,0.24,,2013-06-17 03:22:00,
2013-06-16 23:33:00,65.0,62.0,29.86,NW,319,0.0,1.0,89,0.00,,,0.24,,2013-06-17 03:33:00,
2013-06-16 23:44:00,64.0,61.0,29.86,East,95,0.0,1.0,89,0.00,,,0.24,,2013-06-17 03:44:00,
2013-06-16 23:53:00,64.0,61.0,29.86,East,95,0.0,1.0,89,0.00,,,0.24,,2013-06-17 03:53:00,